Greenwood, FL

1:58 PM CST on February 06, 2016 (GMT -0600)
Marianna Municipal

Weather History for KMAI - March, 2013

Change the Weather History Date:

Friday, March 22, 2013

  Actual Average Record
Temperature  
Mean Temperature 57 °F 61 °F  
Max Temperature 67 °F 74 °F 89 °F (2011)
Min Temperature 47 °F 49 °F 39 °F (2002)
Degree Days  
Heating Degree Days 8    
Month to date heating degree days 223  
Since 1 July heating degree days 1226  
Cooling Degree Days 0    
Month to date cooling degree days 6  
Year to date cooling degree days 65  
Growing Degree Days 7 (Base 50)    
Moisture  
Dew Point 34 °F    
Average Humidity 51    
Maximum Humidity 77    
Minimum Humidity 24    
Precipitation  
Precipitation 0.00 in 0.19 in 1.80 in (2005)
Month to date precipitation 2.34 3.66  
Year to date precipitation 16.21 13.64  
Sea Level Pressure  
Sea Level Pressure 29.97 in    
Wind  
Wind Speed 7 mph (ENE)    
Max Wind Speed 14 mph    
Max Gust Speed 18 mph    
Visibility 10 miles    
Events      
T = Trace of Precipitation, MM = Missing Value Source: NWS Daily Summary

Daily Weather History Graph

Daily Weather History Graph

Search for Another Location

Airport or City:

Trip Planner

Search our weather history database for the weather conditions in past years. The results will help you decide how hot, cold, wet, or windy it might be!

Date:

Astronomy

Mar. 22, 2013 Rise Set
Actual Time 6:41 AM CDT 6:53 PM CDT
Civil Twilight 6:17 AM CDT 7:17 PM CDT
Nautical Twilight 5:49 AM CDT 7:45 PM CDT
Astronomical Twilight 5:21 AM CDT 8:14 PM CDT
Moon 2:36 PM CDT (3/22) 3:24 AM CDT (3/22)
Length of Visible Light 13h 00m
Length of Day
12h 11m
Waxing Gibbous, 77% of the Moon is Illuminated
Mar 22
Waxing Gibbous
Mar 27
Full
Apr 2
Last Quarter
Apr 10
New
Apr 18
First Quarter

Hourly Weather History & Observations

Time (CDT) Temp. Dew Point Humidity Pressure Visibility Wind Dir Wind Speed Gust Speed Precip Events Conditions
12:53 AM 48.0 °F 41.0 °F 77% 29.95 in 10.0 mi Calm Calm - N/A   Mostly Cloudy
1:53 AM 48.9 °F 39.0 °F 69% 29.96 in 10.0 mi Calm Calm - N/A   Scattered Clouds
2:53 AM 48.9 °F 37.0 °F 64% 29.96 in 10.0 mi NE 4.6 mph - N/A   Mostly Cloudy
3:53 AM 48.9 °F 35.1 °F 59% 29.96 in 10.0 mi NE 5.8 mph - N/A   Clear
4:53 AM 48.9 °F 33.1 °F 54% 29.95 in 10.0 mi ENE 6.9 mph - N/A   Partly Cloudy
5:53 AM 48.9 °F 28.0 °F 44% 29.97 in 10.0 mi ENE 10.4 mph - N/A   Clear
6:53 AM 48.0 °F 27.0 °F 44% 30.00 in 10.0 mi ENE 6.9 mph - N/A   Mostly Cloudy
7:53 AM 48.9 °F 25.0 °F 39% 30.03 in 10.0 mi ENE 8.1 mph - N/A   Partly Cloudy
8:53 AM 52.0 °F 26.1 °F 37% 30.04 in 10.0 mi East 9.2 mph - N/A   Mostly Cloudy
9:53 AM 55.9 °F 26.1 °F 32% 30.03 in 10.0 mi ESE 8.1 mph - N/A   Mostly Cloudy
10:53 AM 57.9 °F 26.1 °F 30% 30.01 in 10.0 mi East 11.5 mph - N/A   Clear
11:53 AM 61.0 °F 27.0 °F 27% 29.99 in 10.0 mi SSE 8.1 mph 16.1 mph N/A   Scattered Clouds
12:53 PM 64.0 °F 28.0 °F 26% 29.97 in 10.0 mi East 6.9 mph - N/A   Overcast
1:53 PM 66.0 °F 28.9 °F 25% 29.95 in 10.0 mi Variable 5.8 mph - N/A   Overcast
3:53 PM 66.0 °F 32.0 °F 28% 29.93 in 10.0 mi ENE 9.2 mph - N/A   Overcast
4:53 PM 62.1 °F 35.1 °F 37% 29.94 in 10.0 mi ENE 12.7 mph - N/A   Overcast
5:53 PM 61.0 °F 37.9 °F 42% 29.95 in 10.0 mi NE 10.4 mph - N/A   Mostly Cloudy
6:53 PM 57.9 °F 39.9 °F 51% 29.96 in 10.0 mi NE 5.8 mph - N/A   Overcast
7:53 PM 57.0 °F 41.0 °F 55% 29.95 in 10.0 mi East 5.8 mph - N/A   Mostly Cloudy
8:53 PM 57.0 °F 41.0 °F 55% 29.97 in 10.0 mi ENE 5.8 mph - N/A   Overcast
9:53 PM 57.0 °F 41.0 °F 55% 29.95 in 10.0 mi East 6.9 mph - N/A   Overcast
10:53 PM 57.0 °F 41.0 °F 55% 29.96 in 10.0 mi ENE 3.5 mph - N/A   Overcast
11:53 PM 57.0 °F 41.0 °F 55% 29.94 in 10.0 mi East 5.8 mph - N/A   Overcast